| time (UTC) | temp F | wind direction | speed MPH | gust MPH | rain 1hr in | rain 24hr in | rain mn in | humidity % | barometer mb |
| 20260507114804 | 31 | 294 | 5.0 | 7.0 | 0.00 | 0.01 | 0.01 | 93 | 1016.9 |
| 20260507114503 | 31 | 290 | 4.0 | 8.0 | 0.00 | 0.01 | 0.01 | 93 | 1016.9 |
| 20260507113804 | 31 | 294 | 6.0 | 8.0 | 0.00 | 0.01 | 0.01 | 93 | 1016.8 |
| 20260507113304 | 31 | 289 | 6.0 | 7.0 | 0.00 | 0.01 | 0.01 | 93 | 1016.8 |
| 20260507113102 | 31 | 303 | 5.0 | 8.0 | 0.00 | 0.01 | 0.01 | 93 | 1016.8 |
| 20260507112307 | 32 | 298 | 5.0 | 7.0 | 0.00 | 0.01 | 0.01 | 92 | 1016.9 |
| 20260507111804 | 32 | 289 | 5.0 | 7.0 | 0.00 | 0.01 | 0.01 | 92 | 1016.8 |
| 20260507111503 | 31 | 287 | 4.0 | 7.0 | 0.00 | 0.01 | 0.01 | 92 | 1016.8 |
| 20260507111304 | 32 | 289 | 6.0 | 7.0 | 0.00 | 0.01 | 0.01 | 92 | 1016.8 |
| 20260507110804 | 32 | 289 | 3.0 | 6.0 | 0.00 | 0.01 | 0.01 | 92 | 1016.8 |
| 20260507110304 | 32 | 295 | 5.0 | 7.0 | 0.00 | 0.01 | 0.01 | 92 | 1017.0 |
| 20260507110103 | 32 | 298 | 5.0 | 7.0 | 0.00 | 0.01 | 0.01 | 92 | 1017.0 |
| 20260507105804 | 32 | 294 | 5.0 | 7.0 | 0.00 | 0.01 | 0.01 | 92 | 1017.1 |
| 20260507104805 | 33 | 285 | 6.0 | 8.0 | 0.00 | 0.01 | 0.01 | 92 | 1017.2 |
| 20260507104502 | 32 | 293 | 6.0 | 8.0 | 0.00 | 0.01 | 0.01 | 92 | 1017.2 |
| 20260507104304 | 33 | 290 | 6.0 | 8.0 | 0.00 | 0.01 | 0.01 | 92 | 1017.2 |
| 20260507103809 | 33 | 291 | 7.0 | 8.0 | 0.00 | 0.01 | 0.01 | 93 | 1017.3 |
| 20260507103102 | 33 | 305 | 6.0 | 8.0 | 0.01 | 0.01 | 0.01 | 92 | 1017.2 |
| 20260507102804 | 34 | 298 | 5.0 | 8.0 | 0.01 | 0.01 | 0.01 | 92 | 1017.2 |
| 20260507102306 | 34 | 295 | 6.0 | 9.0 | 0.01 | 0.01 | 0.01 | 93 | 1017.2 |
| 20260507101804 | 34 | 295 | 6.0 | 8.0 | 0.01 | 0.01 | 0.01 | 93 | 1017.4 |
| 20260507101503 | 34 | 289 | 6.0 | 8.0 | 0.01 | 0.01 | 0.01 | 93 | 1017.4 |
| 20260507101304 | 34 | 284 | 6.0 | 8.0 | 0.01 | 0.01 | 0.01 | 92 | 1017.4 |
| 20260507100804 | 34 | 281 | 5.0 | 8.0 | 0.01 | 0.01 | 0.01 | 93 | 1017.4 |
| 20260507100304 | 34 | 280 | 6.0 | 10.0 | 0.01 | 0.01 | 0.01 | 93 | 1017.4 |
| 20260507100103 | 34 | 261 | 7.0 | 10.0 | 0.01 | 0.01 | 0.01 | 93 | 1017.4 |
| 20260507095306 | 34 | 279 | 5.0 | 8.0 | 0.01 | 0.01 | 0.01 | 93 | 1017.6 |
| 20260507094804 | 34 | 272 | 3.0 | 7.0 | 0.01 | 0.01 | 0.01 | 93 | 1017.7 |
| 20260507094503 | 34 | 269 | 5.0 | 8.0 | 0.01 | 0.01 | 0.01 | 93 | 1017.6 |
| 20260507094304 | 34 | 269 | 6.0 | 8.0 | 0.01 | 0.01 | 0.01 | 93 | 1017.7 |
| 20260507093804 | 35 | 288 | 3.0 | 7.0 | 0.01 | 0.01 | 0.01 | 93 | 1017.9 |
| 20260507093304 | 35 | 275 | 7.0 | 10.0 | 0.00 | 0.00 | 0.00 | 93 | 1017.8 |
| 20260507093107 | 34 | 258 | 8.0 | 10.0 | 0.00 | 0.00 | 0.00 | 93 | 1017.7 |
| 20260507092803 | 34 | 262 | 5.0 | 8.0 | 0.00 | 0.00 | 0.00 | 93 | 1017.8 |
| 20260507092306 | 34 | 279 | 3.0 | 3.0 | 0.00 | 0.00 | 0.00 | 93 | 1017.9 |
| 20260507091804 | 34 | 273 | 5.0 | 7.0 | 0.00 | 0.00 | 0.00 | 93 | 1017.9 |
| 20260507091503 | 34 | 269 | 4.0 | 11.0 | 0.00 | 0.00 | 0.00 | 93 | 1017.9 |
| 20260507091304 | 34 | 275 | 5.0 | 7.0 | 0.00 | 0.00 | 0.00 | 93 | 1017.9 |
| 20260507090804 | 34 | 270 | 6.0 | 10.0 | 0.00 | 0.00 | 0.00 | 93 | 1018.0 |
| 20260507090304 | 34 | 269 | 7.0 | 9.0 | 0.00 | 0.00 | 0.00 | 92 | 1018.1 |
| 20260507090108 | 34 | 271 | 6.0 | 8.0 | 0.00 | 0.00 | 0.00 | 93 | 1018.2 |
| 20260507085804 | 34 | 271 | 5.0 | 7.0 | 0.00 | 0.00 | 0.00 | 92 | 1018.2 |
| 20260507084804 | 34 | 276 | 5.0 | 6.0 | 0.00 | 0.00 | 0.00 | 92 | 1018.3 |
| 20260507084502 | 34 | 281 | 4.0 | 5.0 | 0.00 | 0.00 | 0.00 | 92 | 1018.3 |
| 20260507084304 | 35 | 277 | 5.0 | 6.0 | 0.00 | 0.00 | 0.00 | 92 | 1018.3 |
| 20260507083804 | 35 | 280 | 3.0 | 6.0 | 0.00 | 0.00 | 0.00 | 92 | 1018.4 |
| 20260507083304 | 35 | 273 | 5.0 | 8.0 | 0.00 | 0.00 | 0.00 | 93 | 1018.5 |
| 20260507083102 | 35 | 268 | 5.0 | 9.0 | 0.00 | 0.00 | 0.00 | 93 | 1018.5 |
| 20260507082804 | 35 | 273 | 6.0 | 8.0 | 0.00 | 0.00 | 0.00 | 92 | 1018.5 |
| 20260507082306 | 35 | 266 | 6.0 | 9.0 | 0.00 | 0.00 | 0.00 | 92 | 1018.5 |
| 20260507081804 | 35 | 271 | 6.0 | 8.0 | 0.00 | 0.00 | 0.00 | 92 | 1018.5 |
| 20260507081502 | 35 | 272 | 5.0 | 9.0 | 0.00 | 0.00 | 0.00 | 92 | 1018.6 |
| 20260507081304 | 35 | 271 | 6.0 | 9.0 | 0.00 | 0.00 | 0.00 | 93 | 1018.6 |
| 20260507080803 | 35 | 265 | 6.0 | 9.0 | 0.00 | 0.00 | 0.00 | 93 | 1018.6 |
| 20260507080304 | 35 | 265 | 6.0 | 9.0 | 0.00 | 0.00 | 0.00 | 93 | 1018.7 |
| 20260507075307 | 35 | 268 | 6.0 | 8.0 | 0.00 | 0.00 | 0.00 | 93 | 1018.8 |
| 20260507074804 | 35 | 269 | 5.0 | 7.0 | 0.00 | 0.00 | 0.00 | 93 | 1018.9 |
| 20260507074503 | 34 | 264 | 4.0 | 7.0 | 0.00 | 0.00 | 0.00 | 93 | 1018.8 |
| 20260507074304 | 35 | 271 | 5.0 | 7.0 | 0.00 | 0.00 | 0.00 | 93 | 1019.0 |
| 20260507073804 | 35 | 265 | 5.0 | 8.0 | 0.00 | 0.00 | 0.00 | 92 | 1019.1 |
| 20260507073304 | 35 | 269 | 3.0 | 5.0 | 0.00 | 0.00 | 0.00 | 92 | 1019.0 |
| 20260507073110 | 34 | 279 | 3.0 | 5.0 | 0.00 | 0.00 | 0.00 | 92 | 1019.0 |
| 20260507072805 | 35 | 269 | 3.0 | 5.0 | 0.00 | 0.00 | 0.00 | 92 | 1019.1 |
| 20260507072306 | 35 | 280 | 2.0 | 5.0 | 0.00 | 0.00 | 0.00 | 92 | 1019.2 |
| 20260507071804 | 35 | 272 | 5.0 | 7.0 | 0.00 | 0.00 | 0.00 | 92 | 1019.3 |
| 20260507071504 | 35 | 264 | 4.0 | 7.0 | 0.00 | 0.00 | 0.00 | 92 | 1019.3 |
| 20260507071304 | 35 | 268 | 3.0 | 5.0 | 0.00 | 0.00 | 0.00 | 92 | 1019.3 |
| 20260507070304 | 35 | 270 | 3.0 | 3.0 | 0.00 | 0.00 | 0.00 | 92 | 1019.4 |
| 20260507070107 | 35 | 271 | 3.0 | 4.0 | 0.00 | 0.00 | 0.00 | 92 | 1019.4 |
| 20260507065804 | 35 | 275 | 3.0 | 3.0 | 0.00 | 0.00 | 0.00 | 92 | 1019.5 |
| 20260507065306 | 35 | 268 | 3.0 | 3.0 | 0.00 | 0.00 | 0.00 | 92 | 1019.6 |
| 20260507064804 | 35 | 267 | 3.0 | 5.0 | 0.00 | 0.00 | 0.00 | 92 | 1019.7 |
| 20260507064502 | 34 | 258 | 3.0 | 5.0 | 0.00 | 0.00 | 0.00 | 92 | 1019.7 |
| 20260507064304 | 35 | 276 | 2.0 | 5.0 | 0.00 | 0.00 | 0.00 | 92 | 1019.7 |
| 20260507063304 | 35 | 293 | 2.0 | 3.0 | 0.00 | 0.00 | 0.00 | 92 | 1019.8 |
| 20260507063102 | 35 | 289 | 2.0 | 3.0 | 0.00 | 0.00 | 0.00 | 92 | 1019.7 |
| 20260507062804 | 35 | 288 | 2.0 | 3.0 | 0.00 | 0.00 | 0.00 | 92 | 1019.9 |
| 20260507062306 | 35 | 297 | 2.0 | 3.0 | 0.00 | 0.00 | 0.00 | 92 | 1019.9 |
| 20260507061804 | 35 | 288 | 2.0 | 3.0 | 0.00 | 0.00 | 0.00 | 92 | 1019.7 |
| 20260507061503 | 35 | 264 | 1.0 | 2.0 | 0.00 | 0.00 | 0.00 | 92 | 1019.7 |
| 20260507061303 | 35 | 264 | 1.0 | 2.0 | 0.00 | 0.00 | 0.00 | 92 | 1019.8 |
| 20260507060804 | 36 | 264 | 1.0 | 2.0 | 0.00 | 0.00 | 0.00 | 92 | 1019.9 |
| 20260507060304 | 36 | 264 | 1.0 | 3.0 | 0.00 | 0.00 | 0.00 | 92 | 1019.9 |
| 20260507055306 | 36 | 265 | 1.0 | 3.0 | 0.00 | 0.00 | 0.00 | 92 | 1020.0 |
| 20260507054804 | 36 | 265 | 2.0 | 3.0 | 0.00 | 0.00 | 0.00 | 92 | 1020.1 |
| 20260507054502 | 35 | 265 | 2.0 | 5.0 | 0.00 | 0.00 | 0.00 | 92 | 1020.0 |
| 20260507054304 | 36 | 266 | 3.0 | 5.0 | 0.00 | 0.00 | 0.00 | 92 | 1020.0 |
| 20260507053127 | 36 | 243 | 2.0 | 4.0 | 0.00 | 0.00 | 0.00 | 92 | 1020.0 |
| 20260507052804 | 36 | 255 | 2.0 | 3.0 | 0.00 | 0.00 | 0.00 | 92 | 1020.1 |
| 20260507052306 | 37 | 237 | 2.0 | 3.0 | 0.00 | 0.00 | 0.00 | 92 | 1020.1 |
| 20260507051804 | 37 | 254 | 2.0 | 3.0 | 0.00 | 0.00 | 0.00 | 92 | 1020.1 |
| 20260507051503 | 36 | 264 | 3.0 | 4.0 | 0.00 | 0.00 | 0.00 | 92 | 1020.1 |
| 20260507050804 | 37 | 265 | 2.0 | 3.0 | 0.00 | 0.00 | 0.00 | 92 | 1020.1 |
| 20260507050304 | 37 | 257 | 2.0 | 3.0 | 0.00 | 0.00 | 0.00 | 92 | 1020.0 |
| 20260507050103 | 37 | 243 | 2.0 | 5.0 | 0.00 | 0.00 | 0.00 | 92 | 1020.0 |
| 20260507045804 | 37 | 269 | 4.0 | 5.0 | 0.00 | 0.00 | 0.00 | 92 | 1020.0 |
| 20260507044804 | 37 | 241 | 3.0 | 3.0 | 0.00 | 0.00 | 0.00 | 92 | 1020.1 |
| 20260507044502 | 37 | 264 | 3.0 | 4.0 | 0.00 | 0.01 | 0.00 | 92 | 1020.2 |
| 20260507044304 | 37 | 273 | 2.0 | 3.0 | 0.00 | 0.00 | 0.00 | 92 | 1020.2 |
| 20260507043804 | 37 | 272 | 2.0 | 3.0 | 0.00 | 0.01 | 0.00 | 92 | 1020.2 |
| 20260507043303 | 37 | 274 | 3.0 | 5.0 | 0.00 | 0.01 | 0.00 | 91 | 1020.3 |
| 20260507043105 | 37 | 269 | 3.0 | 5.0 | 0.00 | 0.01 | 0.00 | 91 | 1020.3 |
| 20260507042804 | 37 | 271 | 3.0 | 3.0 | 0.00 | 0.01 | 0.00 | 91 | 1020.3 |
| 20260507042306 | 37 | 280 | 2.0 | 3.0 | 0.00 | 0.01 | 0.00 | 91 | 1020.2 |
| 20260507041502 | 37 | 271 | 2.0 | 3.0 | 0.00 | 0.01 | 0.00 | 91 | 1020.0 |
| 20260507041304 | 38 | 293 | 2.0 | 2.0 | 0.00 | 0.01 | 0.00 | 91 | 1020.1 |
| 20260507040804 | 38 | 293 | 2.0 | 3.0 | 0.00 | 0.01 | 0.00 | 91 | 1020.2 |
| 20260507040303 | 38 | 293 | 2.0 | 3.0 | 0.00 | 0.01 | 0.00 | 91 | 1020.2 |
| 20260507040106 | 38 | 287 | 2.0 | 4.0 | 0.00 | 0.01 | 0.00 | 91 | 1020.2 |
| 20260507035804 | 38 | 287 | 3.0 | 3.0 | 0.00 | 0.01 | 0.00 | 91 | 1020.3 |
| 20260507035306 | 38 | 281 | 3.0 | 3.0 | 0.00 | 0.01 | 0.00 | 91 | 1020.4 |
| 20260507034803 | 39 | 281 | 3.0 | 6.0 | 0.00 | 0.01 | 0.00 | 91 | 1020.3 |
| 20260507034502 | 38 | 278 | 3.0 | 6.0 | 0.00 | 0.02 | 0.00 | 91 | 1020.3 |
| 20260507034304 | 39 | 282 | 3.0 | 3.0 | 0.00 | 0.02 | 0.00 | 91 | 1020.3 |
| 20260507033803 | 39 | 275 | 3.0 | 7.0 | 0.00 | 0.02 | 0.00 | 91 | 1020.2 |
| 20260507033304 | 40 | 264 | 5.0 | 7.0 | 0.00 | 0.02 | 0.00 | 91 | 1020.1 |
| 20260507033129 | 39 | 270 | 4.0 | 6.0 | 0.00 | 0.02 | 0.00 | 91 | 1020.1 |
| 20260507032804 | 40 | 269 | 3.0 | 5.0 | 0.00 | 0.02 | 0.00 | 91 | 1020.0 |
| 20260507032306 | 40 | 259 | 3.0 | 7.0 | 0.00 | 0.02 | 0.00 | 91 | 1020.1 |
| 20260507031803 | 40 | 258 | 3.0 | 3.0 | 0.00 | 0.02 | 0.00 | 91 | 1020.0 |
| 20260507031502 | 39 | 268 | 2.0 | 4.0 | 0.00 | 0.02 | 0.00 | 91 | 1020.0 |
| 20260507031303 | 40 | 270 | 3.0 | 3.0 | 0.00 | 0.02 | 0.00 | 91 | 1019.9 |
| 20260507030804 | 40 | 285 | 2.0 | 3.0 | 0.00 | 0.02 | 0.00 | 91 | 1019.9 |
| 20260507030304 | 40 | 285 | 2.0 | 3.0 | 0.00 | 0.02 | 0.00 | 91 | 1019.9 |
| 20260507030111 | 40 | 285 | 2.0 | 3.0 | 0.00 | 0.02 | 0.00 | 91 | 1019.9 |
| 20260507025306 | 40 | 285 | 2.0 | 3.0 | 0.00 | 0.02 | 0.00 | 91 | 1019.8 |
| 20260507024803 | 40 | 291 | 3.0 | 3.0 | 0.00 | 0.02 | 0.00 | 91 | 1019.8 |
| 20260507024502 | 40 | 292 | 3.0 | 6.0 | 0.00 | 0.02 | 0.00 | 91 | 1019.9 |
| 20260507024304 | 40 | 293 | 3.0 | 6.0 | 0.00 | 0.02 | 0.00 | 91 | 1019.9 |
| 20260507023804 | 40 | 298 | 4.0 | 7.0 | 0.00 | 0.02 | 0.00 | 91 | 1019.8 |
| 20260507023304 | 40 | 300 | 3.0 | 6.0 | 0.00 | 0.02 | 0.00 | 91 | 1019.8 |
| 20260507023103 | 40 | 301 | 3.0 | 7.0 | 0.00 | 0.02 | 0.00 | 91 | 1019.8 |
| 20260507022803 | 41 | 294 | 3.0 | 7.0 | 0.00 | 0.02 | 0.00 | 91 | 1019.7 |
| 20260507022306 | 41 | 299 | 3.0 | 3.0 | 0.00 | 0.02 | 0.00 | 91 | 1019.6 |
| 20260507021503 | 41 | 304 | 3.0 | 4.0 | 0.00 | 0.02 | 0.00 | 91 | 1019.5 |
| 20260507020803 | 42 | 309 | 3.0 | 3.0 | 0.00 | 0.02 | 0.00 | 91 | 1019.2 |
| 20260507020104 | 42 | 306 | 3.0 | 4.0 | 0.00 | 0.02 | 0.00 | 91 | 1019.1 |
| 20260507015808 | 43 | 308 | 3.0 | 3.0 | 0.00 | 0.02 | 0.00 | 91 | 1018.9 |
| 20260507015306 | 43 | 303 | 3.0 | 3.0 | 0.00 | 0.02 | 0.00 | 91 | 1018.9 |
| 20260507014805 | 43 | 293 | 2.0 | 3.0 | 0.00 | 0.02 | 0.00 | 91 | 1018.8 |
| 20260507014508 | 43 | 289 | 2.0 | 4.0 | 0.00 | 0.02 | 0.00 | 91 | 1018.8 |
| 20260507014304 | 43 | 294 | 2.0 | 3.0 | 0.00 | 0.02 | 0.00 | 91 | 1018.8 |
| 20260507013805 | 44 | 297 | 2.0 | 3.0 | 0.00 | 0.02 | 0.00 | 91 | 1018.7 |
| 20260507013104 | 43 | 297 | 1.0 | 3.0 | 0.00 | 0.02 | 0.00 | 91 | 1018.7 |
| 20260507012805 | 43 | 297 | 1.0 | 2.0 | 0.00 | 0.02 | 0.00 | 92 | 1018.6 |
| 20260507012306 | 43 | 297 | 2.0 | 3.0 | 0.00 | 0.02 | 0.00 | 92 | 1018.5 |
| 20260507011804 | 43 | 306 | 2.0 | 2.0 | 0.00 | 0.02 | 0.00 | 92 | 1018.4 |
| 20260507011509 | 43 | 306 | 1.0 | 4.0 | 0.00 | 0.02 | 0.00 | 92 | 1018.4 |
| 20260507010805 | 43 | 318 | 2.0 | 3.0 | 0.00 | 0.02 | 0.00 | 92 | 1018.5 |
| 20260507010104 | 43 | 330 | 2.0 | 7.0 | 0.00 | 0.02 | 0.00 | 92 | 1018.5 |
| 20260507005806 | 43 | 315 | 3.0 | 7.0 | 0.00 | 0.02 | 0.00 | 92 | 1018.7 |
| 20260507005306 | 43 | 320 | 4.0 | 7.0 | 0.00 | 0.02 | 0.00 | 92 | 1018.7 |
| 20260507004804 | 43 | 309 | 3.0 | 6.0 | 0.00 | 0.02 | 0.00 | 92 | 1018.7 |
| 20260507004503 | 43 | 313 | 3.0 | 5.0 | 0.00 | 0.02 | 0.00 | 92 | 1018.7 |
| 20260507004305 | 43 | 315 | 3.0 | 6.0 | 0.00 | 0.02 | 0.00 | 92 | 1018.8 |
| 20260507003306 | 43 | 320 | 3.0 | 6.0 | 0.00 | 0.02 | 0.00 | 92 | 1018.8 |
| 20260507003116 | 43 | 324 | 3.0 | 8.0 | 0.00 | 0.02 | 0.00 | 92 | 1018.8 |
| 20260507002805 | 43 | 326 | 5.0 | 7.0 | 0.00 | 0.02 | 0.00 | 92 | 1018.8 |
| 20260507002306 | 43 | 314 | 5.0 | 7.0 | 0.00 | 0.02 | 0.00 | 92 | 1018.8 |
| 20260507001805 | 43 | 321 | 5.0 | 7.0 | 0.00 | 0.02 | 0.00 | 92 | 1018.8 |
| 20260507001503 | 43 | 321 | 4.0 | 6.0 | 0.00 | 0.02 | 0.00 | 92 | 1018.6 |
| 20260507000805 | 44 | 316 | 2.0 | 3.0 | 0.00 | 0.02 | 0.00 | 92 | 1018.6 |
| 20260507000306 | 44 | 334 | 3.0 | 5.0 | 0.00 | 0.02 | 0.00 | 92 | 1018.7 |
| 20260507000105 | 43 | 333 | 3.0 | 5.0 | 0.00 | 0.02 | 0.00 | 92 | 1018.7 |
| 20260506235805 | 44 | 328 | 2.0 | 5.0 | 0.00 | 0.02 | 0.00 | 92 | 1018.6 |
| 20260506235306 | 44 | 345 | 3.0 | 5.0 | 0.00 | 0.02 | 0.00 | 92 | 1018.6 |
| 20260506234804 | 43 | 0 | 2.0 | 6.0 | 0.00 | 0.02 | 0.00 | 92 | 1018.6 |
| 20260506234504 | 43 | 351 | 3.0 | 6.0 | 0.00 | 0.02 | 0.00 | 92 | 1018.5 |
| 20260506234305 | 43 | 295 | 3.0 | 5.0 | 0.00 | 0.02 | 0.00 | 92 | 1018.5 |
| 20260506233805 | 43 | 324 | 3.0 | 7.0 | 0.00 | 0.02 | 0.00 | 92 | 1018.6 |
| 20260506233305 | 44 | 306 | 2.0 | 3.0 | 0.00 | 0.02 | 0.00 | 92 | 1018.7 |
| 20260506233104 | 43 | 296 | 1.0 | 7.0 | 0.00 | 0.02 | 0.00 | 92 | 1018.7 |
| 20260506232804 | 44 | 268 | 3.0 | 7.0 | 0.00 | 0.02 | 0.00 | 92 | 1018.7 |
| 20260506232306 | 44 | 269 | 5.0 | 7.0 | 0.00 | 0.02 | 0.00 | 92 | 1018.8 |
| 20260506231805 | 44 | 277 | 3.0 | 6.0 | 0.00 | 0.02 | 0.00 | 92 | 1018.8 |
| 20260506231604 | 43 | 273 | 3.0 | 8.0 | 0.00 | 0.02 | 0.00 | 92 | 1018.8 |
| 20260506231304 | 43 | 269 | 5.0 | 7.0 | 0.00 | 0.02 | 0.00 | 92 | 1018.8 |
| 20260506230006 | 43 | 262 | 4.0 | 7.0 | 0.00 | 0.02 | 0.00 | 92 | 1018.7 |
| 20260506225805 | 44 | 270 | 4.0 | 6.0 | 0.00 | 0.02 | 0.00 | 92 | 1018.7 |
| 20260506225306 | 44 | 274 | 2.0 | 3.0 | 0.00 | 0.02 | 0.00 | 92 | 1018.6 |
| 20260506224804 | 44 | 306 | 1.0 | 3.0 | 0.00 | 0.02 | 0.00 | 92 | 1018.5 |
| 20260506224610 | 44 | 304 | 1.0 | 4.0 | 0.00 | 0.02 | 0.00 | 92 | 1018.5 |
| 20260506224305 | 44 | 292 | 2.0 | 3.0 | 0.00 | 0.02 | 0.00 | 92 | 1018.5 |
| 20260506223805 | 44 | 79 | 0.0 | 0.0 | 0.00 | 0.02 | 0.00 | 92 | 1018.4 |
| 20260506223305 | 44 | 30 | 0.0 | 0.0 | 0.00 | 0.02 | 0.00 | 92 | 1018.4 |
| 20260506223003 | 44 | 30 | 0.0 | 0.0 | 0.00 | 0.02 | 0.00 | 92 | 1018.4 |
| 20260506222805 | 44 | 30 | 0.0 | 0.0 | 0.00 | 0.02 | 0.00 | 92 | 1018.4 |
| 20260506222306 | 44 | 91 | 0.0 | 0.0 | 0.00 | 0.02 | 0.00 | 93 | 1018.1 |
| 20260506221804 | 44 | 91 | 0.0 | 0.0 | 0.00 | 0.02 | 0.00 | 93 | 1018.2 |
| 20260506221603 | 44 | 91 | 0.0 | 2.0 | 0.00 | 0.02 | 0.00 | 93 | 1018.2 |
| 20260506221305 | 44 | 91 | 0.0 | 2.0 | 0.00 | 0.02 | 0.00 | 93 | 1018.2 |
| 20260506220805 | 44 | 91 | 1.0 | 2.0 | 0.00 | 0.02 | 0.00 | 93 | 1018.1 |
| 20260506220304 | 44 | 6 | 0.0 | 2.0 | 0.00 | 0.02 | 0.00 | 93 | 1018.1 |
| 20260506220004 | 44 | 6 | 0.0 | 4.0 | 0.00 | 0.02 | 0.00 | 93 | 1018.2 |
| 20260506215805 | 44 | 6 | 2.0 | 3.0 | 0.00 | 0.02 | 0.00 | 93 | 1018.1 |
| 20260506215306 | 44 | 44 | 1.0 | 3.0 | 0.00 | 0.02 | 0.00 | 93 | 1018.2 |
| 20260506214804 | 44 | 48 | 2.0 | 3.0 | 0.00 | 0.02 | 0.00 | 93 | 1018.2 |
| 20260506214603 | 44 | 60 | 1.0 | 4.0 | 0.00 | 0.02 | 0.00 | 93 | 1018.3 |
| 20260506214305 | 44 | 90 | 2.0 | 3.0 | 0.00 | 0.02 | 0.00 | 93 | 1018.2 |
| 20260506213805 | 44 | 88 | 3.0 | 5.0 | 0.00 | 0.02 | 0.00 | 93 | 1018.1 |
| 20260506213305 | 44 | 79 | 3.0 | 5.0 | 0.00 | 0.02 | 0.00 | 94 | 1018.1 |
| 20260506213003 | 44 | 90 | 2.0 | 9.0 | 0.00 | 0.02 | 0.00 | 94 | 1018.1 |
| 20260506212805 | 44 | 86 | 5.0 | 9.0 | 0.00 | 0.02 | 0.00 | 94 | 1018.1 |
| 20260506212306 | 44 | 76 | 5.0 | 8.0 | 0.00 | 0.02 | 0.00 | 94 | 1018.2 |
| 20260506211805 | 44 | 81 | 3.0 | 8.0 | 0.00 | 0.02 | 0.00 | 93 | 1018.2 |
| 20260506211603 | 44 | 162 | 4.0 | 8.0 | 0.00 | 0.02 | 0.00 | 93 | 1018.3 |
| 20260506211305 | 44 | 109 | 3.0 | 7.0 | 0.00 | 0.02 | 0.00 | 94 | 1018.3 |
| 20260506210805 | 44 | 101 | 3.0 | 6.0 | 0.00 | 0.02 | 0.00 | 94 | 1018.3 |
| 20260506210305 | 44 | 87 | 3.0 | 6.0 | 0.00 | 0.02 | 0.00 | 94 | 1018.2 |
| 20260506210005 | 43 | 99 | 3.0 | 6.0 | 0.00 | 0.02 | 0.00 | 94 | 1018.2 |
| 20260506205805 | 44 | 66 | 4.0 | 7.0 | 0.00 | 0.02 | 0.00 | 94 | 1018.2 |
| 20260506205306 | 44 | 73 | 2.0 | 6.0 | 0.00 | 0.02 | 0.00 | 94 | 1018.4 |
| 20260506204603 | 43 | 80 | 4.0 | 8.0 | 0.00 | 0.02 | 0.00 | 94 | 1018.5 |
| 20260506204305 | 44 | 118 | 6.0 | 8.0 | 0.00 | 0.02 | 0.00 | 94 | 1018.5 |
| 20260506203805 | 43 | 82 | 4.0 | 9.0 | 0.00 | 0.02 | 0.00 | 94 | 1018.4 |
| 20260506203304 | 43 | 91 | 6.0 | 9.0 | 0.00 | 0.02 | 0.00 | 94 | 1018.5 |
| 20260506203005 | 43 | 100 | 5.0 | 9.0 | 0.00 | 0.02 | 0.00 | 94 | 1018.5 |
| 20260506202804 | 43 | 85 | 4.0 | 7.0 | 0.00 | 0.02 | 0.00 | 94 | 1018.5 |
| 20260506202306 | 43 | 103 | 6.0 | 9.0 | 0.00 | 0.02 | 0.00 | 94 | 1018.6 |
| 20260506201603 | 42 | 94 | 4.0 | 7.0 | 0.00 | 0.02 | 0.00 | 94 | 1018.6 |
| 20260506201305 | 42 | 133 | 5.0 | 7.0 | 0.00 | 0.02 | 0.00 | 94 | 1018.6 |
| 20260506200805 | 42 | 120 | 5.0 | 8.0 | 0.00 | 0.02 | 0.00 | 94 | 1018.6 |
| 20260506200304 | 42 | 110 | 5.0 | 7.0 | 0.00 | 0.02 | 0.00 | 94 | 1018.6 |
| 20260506200003 | 42 | 123 | 3.0 | 9.0 | 0.00 | 0.02 | 0.00 | 94 | 1018.6 |
| 20260506195804 | 42 | 126 | 4.0 | 8.0 | 0.00 | 0.02 | 0.00 | 94 | 1018.6 |
| 20260506195306 | 42 | 138 | 7.0 | 9.0 | 0.00 | 0.02 | 0.00 | 94 | 1018.6 |
| 20260506194602 | 41 | 130 | 7.0 | 11.0 | 0.00 | 0.02 | 0.00 | 94 | 1018.6 |
| 20260506194304 | 42 | 140 | 7.0 | 9.0 | 0.00 | 0.02 | 0.00 | 94 | 1018.7 |
| 20260506193304 | 41 | 118 | 7.0 | 10.0 | 0.00 | 0.02 | 0.00 | 94 | 1018.5 |
| 20260506193003 | 41 | 126 | 7.0 | 11.0 | 0.00 | 0.02 | 0.00 | 94 | 1018.5 |
| 20260506192306 | 42 | 109 | 7.0 | 10.0 | 0.00 | 0.02 | 0.00 | 94 | 1018.6 |
| 20260506191805 | 42 | 113 | 8.0 | 10.0 | 0.00 | 0.02 | 0.00 | 94 | 1018.6 |
| 20260506191603 | 41 | 104 | 7.0 | 11.0 | 0.00 | 0.02 | 0.00 | 94 | 1018.6 |
| 20260506190804 | 41 | 103 | 7.0 | 10.0 | 0.00 | 0.02 | 0.00 | 94 | 1018.6 |
| 20260506190304 | 41 | 113 | 6.0 | 9.0 | 0.00 | 0.02 | 0.00 | 94 | 1018.7 |
| 20260506185805 | 41 | 112 | 6.0 | 10.0 | 0.00 | 0.02 | 0.00 | 94 | 1018.8 |
| 20260506185307 | 41 | 102 | 7.0 | 9.0 | 0.00 | 0.02 | 0.00 | 94 | 1018.8 |
| 20260506184805 | 41 | 101 | 7.0 | 10.0 | 0.00 | 0.02 | 0.00 | 94 | 1018.8 |
| 20260506184504 | 40 | 100 | 7.0 | 10.0 | 0.00 | 0.02 | 0.00 | 94 | 1018.9 |
| 20260506184305 | 41 | 99 | 6.0 | 10.0 | 0.00 | 0.02 | 0.00 | 94 | 1018.9 |
| 20260506183305 | 41 | 111 | 9.0 | 12.0 | 0.00 | 0.02 | 0.00 | 94 | 1019.0 |
| 20260506183104 | 40 | 122 | 7.0 | 12.0 | 0.00 | 0.02 | 0.00 | 94 | 1019.0 |
| 20260506182805 | 41 | 97 | 9.0 | 12.0 | 0.00 | 0.02 | 0.00 | 94 | 1019.0 |
| 20260506182306 | 41 | 108 | 10.0 | 13.0 | 0.00 | 0.02 | 0.00 | 94 | 1018.9 |
| 20260506181805 | 41 | 89 | 6.0 | 10.0 | 0.00 | 0.02 | 0.00 | 94 | 1018.9 |
| 20260506181505 | 40 | 85 | 7.0 | 13.0 | 0.00 | 0.02 | 0.00 | 95 | 1019.0 |
| 20260506181305 | 41 | 88 | 7.0 | 12.0 | 0.00 | 0.02 | 0.00 | 94 | 1019.0 |
| 20260506180804 | 40 | 96 | 9.0 | 13.0 | 0.00 | 0.02 | 0.00 | 94 | 1019.0 |
| 20260506180304 | 40 | 120 | 8.0 | 12.0 | 0.00 | 0.02 | 0.00 | 94 | 1019.0 |
| 20260506180107 | 40 | 107 | 8.0 | 12.0 | 0.00 | 0.02 | 0.00 | 94 | 1019.0 |
| 20260506175805 | 40 | 91 | 9.0 | 12.0 | 0.00 | 0.02 | 0.00 | 94 | 1018.9 |
| 20260506175306 | 40 | 107 | 8.0 | 10.0 | 0.00 | 0.02 | 0.00 | 94 | 1018.9 |
| 20260506174804 | 40 | 94 | 9.0 | 12.0 | 0.00 | 0.02 | 0.00 | 94 | 1018.7 |
| 20260506174502 | 40 | 106 | 7.0 | 14.0 | 0.00 | 0.02 | 0.00 | 94 | 1018.7 |
| 20260506173804 | 40 | 101 | 9.0 | 13.0 | 0.00 | 0.02 | 0.00 | 94 | 1018.7 |
| 20260506173304 | 40 | 102 | 10.0 | 13.0 | 0.00 | 0.02 | 0.00 | 94 | 1018.7 |
| 20260506173130 | 39 | 100 | 9.0 | 13.0 | 0.00 | 0.02 | 0.00 | 94 | 1018.7 |
| 20260506172804 | 40 | 96 | 10.0 | 13.0 | 0.00 | 0.02 | 0.00 | 95 | 1018.7 |
| 20260506172307 | 39 | 100 | 10.0 | 13.0 | 0.00 | 0.02 | 0.00 | 94 | 1018.7 |
| 20260506171805 | 39 | 98 | 9.0 | 12.0 | 0.00 | 0.02 | 0.00 | 94 | 1018.7 |
| 20260506171503 | 38 | 85 | 8.0 | 14.0 | 0.00 | 0.02 | 0.00 | 94 | 1018.7 |
| 20260506171305 | 39 | 91 | 10.0 | 13.0 | 0.00 | 0.02 | 0.00 | 94 | 1018.7 |
| 20260506170804 | 38 | 80 | 10.0 | 13.0 | 0.00 | 0.02 | 0.00 | 94 | 1018.7 |
| 20260506170305 | 38 | 81 | 9.0 | 13.0 | 0.00 | 0.02 | 0.00 | 94 | 1018.7 |
| 20260506170103 | 38 | 84 | 10.0 | 14.0 | 0.00 | 0.02 | 0.00 | 94 | 1018.7 |
| 20260506165804 | 38 | 70 | 11.0 | 14.0 | 0.00 | 0.02 | 0.00 | 94 | 1018.7 |
| 20260506165306 | 38 | 75 | 10.0 | 12.0 | 0.00 | 0.02 | 0.00 | 94 | 1018.6 |
| 20260506164805 | 38 | 66 | 10.0 | 12.0 | 0.00 | 0.02 | 0.00 | 94 | 1018.6 |
| 20260506164504 | 38 | 64 | 8.0 | 14.0 | 0.00 | 0.02 | 0.00 | 94 | 1018.6 |
| 20260506164305 | 38 | 74 | 10.0 | 13.0 | 0.00 | 0.02 | 0.00 | 94 | 1018.6 |
| 20260506163805 | 38 | 63 | 10.0 | 13.0 | 0.00 | 0.02 | 0.00 | 94 | 1018.5 |
| 20260506163305 | 38 | 80 | 8.0 | 13.0 | 0.00 | 0.02 | 0.00 | 94 | 1018.4 |
| 20260506163108 | 37 | 79 | 8.0 | 13.0 | 0.00 | 0.02 | 0.00 | 94 | 1018.3 |
| 20260506162307 | 38 | 61 | 10.0 | 13.0 | 0.00 | 0.02 | 0.00 | 94 | 1018.2 |
| 20260506161804 | 37 | 73 | 9.0 | 13.0 | 0.00 | 0.02 | 0.00 | 94 | 1018.2 |
| 20260506161503 | 37 | 73 | 9.0 | 14.0 | 0.00 | 0.02 | 0.00 | 94 | 1018.2 |
| 20260506160305 | 37 | 56 | 10.0 | 13.0 | 0.00 | 0.02 | 0.00 | 94 | 1018.1 |
| 20260506160114 | 36 | 45 | 8.0 | 13.0 | 0.00 | 0.02 | 0.00 | 94 | 1018.2 |
| 20260506155804 | 37 | 53 | 10.0 | 13.0 | 0.00 | 0.02 | 0.00 | 94 | 1018.0 |
| 20260506155306 | 37 | 64 | 10.0 | 12.0 | 0.00 | 0.02 | 0.00 | 94 | 1017.9 |
| 20260506154503 | 36 | 62 | 9.0 | 12.0 | 0.00 | 0.02 | 0.00 | 94 | 1017.9 |
| 20260506154304 | 37 | 53 | 10.0 | 12.0 | 0.00 | 0.02 | 0.00 | 94 | 1017.9 |
| 20260506153805 | 37 | 53 | 9.0 | 12.0 | 0.00 | 0.02 | 0.00 | 94 | 1017.8 |
| 20260506153104 | 37 | 50 | 9.0 | 13.0 | 0.00 | 0.02 | 0.00 | 93 | 1017.7 |
| 20260506152804 | 37 | 55 | 9.0 | 12.0 | 0.00 | 0.02 | 0.00 | 93 | 1017.7 |
| 20260506152306 | 37 | 59 | 11.0 | 13.0 | 0.00 | 0.02 | 0.00 | 94 | 1017.8 |
| 20260506151804 | 38 | 48 | 9.0 | 12.0 | 0.00 | 0.02 | 0.00 | 94 | 1017.8 |
| 20260506151503 | 37 | 64 | 7.0 | 12.0 | 0.00 | 0.02 | 0.00 | 94 | 1017.8 |
| 20260506151304 | 37 | 54 | 9.0 | 12.0 | 0.00 | 0.02 | 0.00 | 94 | 1017.8 |
| 20260506150804 | 37 | 59 | 9.0 | 12.0 | 0.00 | 0.02 | 0.00 | 94 | 1017.8 |
| 20260506150305 | 37 | 52 | 7.0 | 10.0 | 0.00 | 0.02 | 0.00 | 94 | 1017.8 |
| 20260506145804 | 37 | 54 | 7.0 | 10.0 | 0.00 | 0.02 | 0.00 | 94 | 1017.8 |
| 20260506145306 | 37 | 59 | 8.0 | 12.0 | 0.00 | 0.02 | 0.00 | 94 | 1017.8 |
| 20260506144805 | 37 | 57 | 8.0 | 12.0 | 0.00 | 0.02 | 0.00 | 94 | 1017.7 |
| 20260506144504 | 36 | 60 | 8.0 | 10.0 | 0.00 | 0.02 | 0.00 | 94 | 1017.7 |
| 20260506143804 | 36 | 70 | 7.0 | 12.0 | 0.00 | 0.02 | 0.00 | 93 | 1017.6 |
| 20260506143304 | 36 | 74 | 8.0 | 12.0 | 0.00 | 0.02 | 0.00 | 93 | 1017.6 |
| 20260506143103 | 36 | 71 | 7.0 | 11.0 | 0.00 | 0.02 | 0.00 | 93 | 1017.6 |
| 20260506142804 | 36 | 64 | 8.0 | 10.0 | 0.00 | 0.02 | 0.00 | 93 | 1017.5 |
| 20260506141804 | 37 | 50 | 6.0 | 9.0 | 0.00 | 0.02 | 0.00 | 93 | 1017.6 |
| 20260506141603 | 36 | 67 | 6.0 | 9.0 | 0.00 | 0.02 | 0.00 | 93 | 1017.5 |
| 20260506141304 | 37 | 66 | 5.0 | 8.0 | 0.00 | 0.02 | 0.00 | 93 | 1017.5 |
| 20260506140805 | 37 | 60 | 5.0 | 7.0 | 0.00 | 0.02 | 0.00 | 93 | 1017.5 |
| 20260506140304 | 37 | 65 | 5.0 | 8.0 | 0.00 | 0.02 | 0.00 | 93 | 1017.5 |
| 20260506140003 | 37 | 75 | 4.0 | 8.0 | 0.00 | 0.02 | 0.00 | 93 | 1017.4 |
| 20260506135804 | 37 | 79 | 5.0 | 8.0 | 0.00 | 0.02 | 0.00 | 93 | 1017.3 |
| 20260506134805 | 37 | 73 | 4.0 | 8.0 | 0.00 | 0.02 | 0.00 | 93 | 1017.3 |
| 20260506134603 | 37 | 67 | 5.0 | 9.0 | 0.00 | 0.02 | 0.00 | 93 | 1017.2 |
| 20260506134305 | 37 | 88 | 6.0 | 9.0 | 0.00 | 0.02 | 0.00 | 93 | 1017.1 |
| 20260506133805 | 37 | 88 | 7.0 | 10.0 | 0.00 | 0.02 | 0.00 | 93 | 1017.0 |
| 20260506133306 | 37 | 89 | 6.0 | 9.0 | 0.00 | 0.02 | 0.00 | 93 | 1017.0 |
| 20260506133003 | 37 | 75 | 5.0 | 9.0 | 0.00 | 0.02 | 0.00 | 93 | 1017.0 |
| 20260506132804 | 37 | 86 | 6.0 | 9.0 | 0.00 | 0.02 | 0.00 | 93 | 1017.0 |
| 20260506131804 | 37 | 80 | 5.0 | 9.0 | 0.00 | 0.02 | 0.00 | 93 | 1016.9 |
| 20260506131604 | 37 | 99 | 5.0 | 9.0 | 0.00 | 0.02 | 0.00 | 93 | 1016.8 |
| 20260506131304 | 38 | 93 | 5.0 | 8.0 | 0.00 | 0.02 | 0.00 | 93 | 1016.7 |
| 20260506130304 | 37 | 105 | 5.0 | 8.0 | 0.00 | 0.02 | 0.00 | 93 | 1016.5 |
| 20260506130004 | 37 | 85 | 5.0 | 10.0 | 0.00 | 0.02 | 0.00 | 93 | 1016.5 |
| 20260506125804 | 37 | 87 | 6.0 | 10.0 | 0.00 | 0.02 | 0.00 | 93 | 1016.5 |
| 20260506125306 | 37 | 98 | 5.0 | 9.0 | 0.00 | 0.02 | 0.00 | 93 | 1016.5 |
| 20260506124603 | 37 | 89 | 3.0 | 6.0 | 0.00 | 0.02 | 0.00 | 93 | 1016.5 |
| 20260506124304 | 37 | 90 | 3.0 | 5.0 | 0.00 | 0.02 | 0.00 | 93 | 1016.4 |
| 20260506123804 | 37 | 67 | 5.0 | 8.0 | 0.00 | 0.02 | 0.00 | 93 | 1016.2 |
| 20260506123304 | 37 | 61 | 6.0 | 8.0 | 0.00 | 0.02 | 0.00 | 93 | 1016.1 |
| 20260506123003 | 37 | 63 | 5.0 | 10.0 | 0.00 | 0.02 | 0.00 | 93 | 1016.0 |
| 20260506122805 | 37 | 58 | 5.0 | 8.0 | 0.00 | 0.02 | 0.00 | 93 | 1016.0 |
| 20260506121804 | 37 | 61 | 6.0 | 10.0 | 0.00 | 0.02 | 0.00 | 93 | 1015.8 |
| 20260506121602 | 37 | 64 | 7.0 | 11.0 | 0.00 | 0.02 | 0.00 | 93 | 1015.7 |
| 20260506121304 | 37 | 42 | 9.0 | 12.0 | 0.00 | 0.02 | 0.00 | 93 | 1015.6 |
| 20260506120304 | 38 | 76 | 6.0 | 9.0 | 0.00 | 0.02 | 0.00 | 93 | 1015.4 |
| 20260506120003 | 37 | 79 | 5.0 | 8.0 | 0.00 | 0.02 | 0.00 | 93 | 1015.5 |
| 20260506115804 | 37 | 77 | 5.0 | 8.0 | 0.00 | 0.02 | 0.00 | 93 | 1015.7 |